This is the latest recevied weather packets stored in our database for station/object VR2MW-X. If no packets are shown the sender has not sent any weather packets the latest 10 day(s).
| Time | Temp. | Humidity | Pressure | Rain* | Wind** | Luminosity | Snow |
|---|---|---|---|---|---|---|---|
| 1778155260 | 26.11° C | 83% | 1010.7 hPa | - | - | - | - |
| 1778154650 | 26.11° C | 81% | 1010.6 hPa | - | - | - | - |
| 1778154039 | 26.11° C | 80% | 1010.1 hPa | - | - | - | - |
| 1778153429 | 26.11° C | 78% | 1010.1 hPa | - | - | - | - |
| 1778152818 | 26.11° C | 79% | 1010.1 hPa | - | - | - | - |
| 1778152206 | 26.11° C | 77% | 1010.1 hPa | - | - | - | - |
| 1778151593 | 27.22° C | 76% | 1010.1 hPa | - | - | - | - |
| 1778150982 | 27.22° C | 75% | 1010.1 hPa | - | - | - | - |
| 1778150371 | 27.22° C | 73% | 1010 hPa | - | - | - | - |
| 1778149760 | 27.22° C | 72% | 1009.8 hPa | - | - | - | - |
| 1778148540 | 27.78° C | 72% | 1009.7 hPa | - | - | - | - |
| 1778147929 | 27.78° C | 71% | 1009.6 hPa | - | - | - | - |
| 1778147318 | 27.78° C | 71% | 1009.6 hPa | - | - | - | - |
| 1778146707 | 27.78° C | 74% | 1009.6 hPa | - | - | - | - |
| 1778146097 | 27.78° C | 72% | 1009.6 hPa | - | - | - | - |
| 1778145487 | 27.78° C | 72% | 1009.6 hPa | - | - | - | - |
| 1778144876 | 27.78° C | 69% | 1009.6 hPa | - | - | - | - |
| 1778144266 | 28.89° C | 67% | 1009.6 hPa | - | - | - | - |
| 1778143655 | 30° C | 67% | 1009.6 hPa | - | - | - | - |
| 1778143045 | 30° C | 66% | 1009.6 hPa | - | - | - | - |
| 1778142434 | 30° C | 64% | 1009.5 hPa | - | - | - | - |
| 1778141824 | 30° C | 63% | 1009.6 hPa | - | - | - | - |
| 1778141213 | 30° C | 64% | 1009.8 hPa | - | - | - | - |
| 1778140603 | 30° C | 64% | 1009.8 hPa | - | - | - | - |
| 1778139382 | 30° C | 63% | 1010.1 hPa | - | - | - | - |
* Rain since midnight (hover to see other rain measurements)
** Current wind speed in m/s (hover to see current wind gust speed)